Flight Track Log - Related Links

Times and Time Zones

All times are in EDT time to prevent confusion due to time zone crossing. See the KAP927 flight status page for this flight to view local times or setup timezone preferences in your user account.

Time Position Orientation Groundspeed Altitude Reporting Facility
EDT Latitude Longitude Course Direction KTS MPH feet Rate Location/Type
Wed 06:41:52 PM 42.7294 -73.8419 261° West 126 145 1,500  Level Boston Center
Wed 06:42:59 PM 42.7497 -73.8850 303° West 150 173 2,100 614 Climbing Boston Center
Wed 06:43:59 PM 42.7847 -73.9139 329° Northwest 148 170 2,800 678 Climbing Boston Center
Wed 06:44:54 PM 42.8158 -73.9375 331° Northwest 133 153 3,400 621 Climbing Boston Center
Wed 06:45:55 PM 42.8444 -73.9608 329° Northwest 123 142 4,000 586 Climbing Boston Center
Wed 06:47:07 PM 42.8797 -73.9872 331° Northwest 125 144 4,700 522 Climbing Boston Center
Wed 06:47:50 PM 42.9022 -74.0047 330° Northwest 122 140 5,000 466 Climbing Boston Center
Wed 06:49:03 PM 42.9353 -74.0339 327° Northwest 116 133 5,600 493 Climbing Boston Center
Wed 06:50:04 PM 42.9642 -74.0572 329° Northwest 114 131 6,100 545 Climbing Boston Center
Wed 06:51:04 PM 42.9889 -74.0778 329° Northwest 109 125 6,700 626 Climbing Boston Center
Wed 06:51:59 PM 43.0136 -74.0956 332° Northwest 107 123 7,300 709 Climbing Boston Center
Wed 06:52:54 PM 43.0383 -74.1161 329° Northwest 109 125 8,000 522 Climbing Boston Center
Wed 06:53:54 PM 43.0608 -74.1367 326° Northwest 106 122 8,300 347 Climbing Boston Center
Wed 06:54:55 PM 43.0897 -74.1603 329° Northwest 116 133 8,700 516 Climbing Boston Center
Wed 06:56:02 PM 43.1164 -74.1836 327° Northwest 102 117 9,400 606 Climbing Boston Center
Wed 06:56:44 PM 43.1331 -74.1928 338° Northwest 101 116 9,800 412 Climbing Boston Center
Wed 06:57:44 PM 43.1597 -74.2133 331° Northwest 101 116 10,100 150 Climbing Boston Center
Wed 06:58:44 PM 43.1867 -74.2369 327° Northwest 107 123 10,100 45 Level Boston Center
Wed 06:59:56 PM 43.2175 -74.2606 331° Northwest 118 136 10,200 45 Climbing Boston Center
Wed 07:00:56 PM 43.2544 -74.2903 330° Northwest 125 144 10,200 -50 Level Boston Center
Wed 07:01:56 PM 43.2833 -74.3139 329° Northwest 125 144 10,100  Descending Boston Center
Wed 07:02:56 PM 43.3225 -74.3381 336° Northwest 137 158 10,200 50 Climbing Boston Center
Wed 07:03:56 PM 43.3511 -74.3617 329° Northwest 137 158 10,200 -50 Level Boston Center
Wed 07:04:56 PM 43.3883 -74.3858 335° Northwest 137 158 10,100 -150 Descending Boston Center
Wed 07:05:56 PM 43.4172 -74.4125 326° Northwest 137 158 9,900 -100 Descending Boston Center
Wed 07:06:56 PM 43.4458 -74.4392 326° Northwest 131 151 9,900  Level Boston Center
Wed 07:07:56 PM 43.4767 -74.4631 331° Northwest 126 145 9,900  Level Boston Center
Wed 07:08:56 PM 43.5075 -74.4897 328° Northwest 126 145 9,900 50 Level Boston Center
Wed 07:09:56 PM 43.5361 -74.5136 329° Northwest 121 139 10,000 50 Climbing Boston Center
Wed 07:10:56 PM 43.5650 -74.5375 329° Northwest 121 139 10,000  Level Boston Center
Wed 07:11:56 PM 43.5894 -74.5583 328° Northwest 121 139 10,000  Level Boston Center
Wed 07:12:56 PM 43.6286 -74.5914 329° Northwest 121 139 10,000  Level Boston Center
Wed 07:13:56 PM 43.6572 -74.6153 329° Northwest 121 139 10,000  Level Boston Center
Wed 07:14:56 PM 43.6881 -74.6367 333° Northwest 121 139 10,000  Level Boston Center
Wed 07:15:56 PM 43.7169 -74.6606 329° Northwest 121 139 10,000  Level Boston Center
Wed 07:16:56 PM 43.7456 -74.6875 326° Northwest 121 139 10,000  Level Boston Center
Wed 07:17:56 PM 43.7742 -74.7089 332° Northwest 121 139 10,000  Level Boston Center
Wed 07:18:56 PM 43.8028 -74.7328 329° Northwest 121 139 10,000 -100 Level Boston Center
Wed 07:19:56 PM 43.8317 -74.7542 332° Northwest 121 139 9,800 -400 Descending Boston Center
Wed 07:20:56 PM 43.8622 -74.7842 325° Northwest 126 145 9,200 -500 Descending Boston Center
Wed 07:21:56 PM 43.8992 -74.8144 329° Northwest 131 151 8,800 -600 Descending Boston Center
Wed 07:22:56 PM 43.9383 -74.8419 333° Northwest 142 163 8,000 -650 Descending Boston Center
Wed 07:23:56 PM 43.9772 -74.8753 328° Northwest 147 169 7,500 -600 Descending Boston Center
Wed 07:24:56 PM 44.0161 -74.9056 331° Northwest 157 181 6,800 -600 Descending Boston Center
Wed 07:25:56 PM 44.0550 -74.9389 328° Northwest 157 181 6,300 -550 Descending Boston Center
Wed 07:26:56 PM 44.0939 -74.9694 331° Northwest 162 186 5,700 -550 Descending Boston Center
Wed 07:27:56 PM 44.1347 -75.0031 329° Northwest 162 186 5,200 -300 Descending Boston Center
Wed 07:28:56 PM 44.1717 -75.0308 332° Northwest 162 186 5,100 -50 Descending Boston Center
Wed 07:29:56 PM 44.2064 -75.0642 325° Northwest 156 180 5,100  Level Boston Center
Wed 07:30:56 PM 44.2311 -75.0825 332° Northwest 145 167 5,100  Level Boston Center

Login

Don't have an account? Register now (free) for customized features, flight alerts, and more!